Starlink 1465

operational
NORAD ID: 45731 Int'l Des: 2020-038 Owner: SPXS Country: US Constellation: starlink
LEOCIRCULARSTARLINK_TYPE

Über Starlink 1465

Beschreibung wird geladen...

Live-Position

3D-Globus wird geladen...

Nächste Überflüge

Höhenverlauf

Altitude vs Time

uPlot chart will show altitude changes over time

Zweizeiliger Elementsatz

1 45731U 20038B 25350.98051055 .00003466 00000-0 25145-3 0 9990
2 45731 53.0542 247.9134 0001439 86.0701 274.0452 15.06399141303728
Epoch: 16. Dez. 2025 • Age: 6 hours

Aktueller Status

Höhe 553.6 km
Geschwindigkeit 7.58 km/s
Subsatellitenpunkt -21.03°S, 80.86°W
Startdatum 13. Juni 2020
Alter 5.5 years
Typ internet

Technische Details

Klassifizierung Payload
Masse 260.00 kg
Trockenmasse 248.00 kg
Gesamtmasse 260.00 kg
Länge 0.20 m
Durchmesser 2.80 m
Spannweite 9.00 m
Form Box + pan
Hersteller SPXS
Bus-Typ Starlink
Phasenstatus In Orbit
Besitzer/Staat SPXS/US

Große Konstellationen

Loading constellations...